Weather History for KYKN - November, 2011

Change the Weather History Date:

Sunday, November 20, 2011

  Actual Average Record
Temperature  
Mean Temperature 17 °F -  
Max Temperature 26 °F 43 °F 67 °F (1989)
Min Temperature 8 °F 24 °F 6 °F (1950)
Degree Days  
Heating Degree Days 48    
Moisture  
Dew Point 11 °F    
Average Humidity 75    
Maximum Humidity 85    
Minimum Humidity 59    
Precipitation  
Precipitation 0.00 in - - ()
Sea Level Pressure  
Sea Level Pressure 30.28 in    
Wind  
Wind Speed 7 mph (WNW)    
Max Wind Speed 14 mph    
Max Gust Speed -    
Visibility 10 miles    
Events      
Averages and records for this station are not official NWS values.
T = Trace of Precipitation, MM = Missing Value Source: NWS Daily Summary

Daily Weather History Graph

Daily Weather History Graph

Search for Another Location

Airport or City:

Trip Planner

Search our weather history database for the weather conditions in past years. The results will help you decide how hot, cold, wet, or windy it might be!

Date:

Astronomy

Nov. 20, 2011 Rise Set
Actual Time 7:27 AM CST 5:02 PM CST
Civil Twilight 6:56 AM CST 5:33 PM CST
Nautical Twilight 6:22 AM CST 6:07 PM CST
Astronomical Twilight 5:48 AM CST 6:41 PM CST
Moon 1:50 AM CST (11/20) 1:58 PM CST (11/20)
Length of Visible Light 10h 36m
Length of Day
9h 34m
Waning Crescent, 27% of the Moon is Illuminated
Nov 20
Waning Crescent
Nov 25
New
Dec 2
First Quarter
Dec 10
Full
Dec 17
Last Quarter

Hourly Weather History & Observations

Time (CST) Temp. Windchill Dew Point Humidity Pressure Visibility Wind Dir Wind Speed Gust Speed Precip Events Conditions
12:15 AM 15.8 °F 7.2 °F 10.4 °F 79% 30.26 in 10.0 mi West 5.8 mph - N/A   Overcast
12:35 AM 14.0 °F 1.2 °F 8.6 °F 79% 30.24 in 10.0 mi NW 10.4 mph - N/A   Mostly Cloudy
12:55 AM 14.0 °F -0.8 °F 8.6 °F 79% 30.23 in 10.0 mi NW 13.8 mph - N/A   Clear
1:15 AM 14.0 °F -0.2 °F 8.6 °F 79% 30.24 in 10.0 mi NW 12.7 mph - N/A   Clear
1:35 AM 12.2 °F 0.7 °F 6.8 °F 79% 30.25 in 10.0 mi NW 8.1 mph - N/A   Clear
1:55 AM 12.2 °F -0.2 °F 8.6 °F 85% 30.23 in 10.0 mi NNW 9.2 mph - N/A   Clear
2:15 AM 12.2 °F 1.7 °F 8.6 °F 85% 30.24 in 10.0 mi NW 6.9 mph - N/A   Clear
2:35 AM 12.2 °F 0.7 °F 6.8 °F 79% 30.25 in 10.0 mi NNW 8.1 mph - N/A   Clear
2:55 AM 12.2 °F 4.3 °F 6.8 °F 79% 30.27 in 10.0 mi WNW 4.6 mph - N/A   Clear
3:15 AM 12.2 °F 6.1 °F 6.8 °F 79% 30.26 in 10.0 mi WNW 3.5 mph - N/A   Clear
3:35 AM 12.2 °F 4.3 °F 6.8 °F 79% 30.27 in 10.0 mi West 4.6 mph - N/A   Clear
3:55 AM 10.4 °F 0.8 °F 6.8 °F 85% 30.28 in 10.0 mi West 5.8 mph - N/A   Clear
4:15 AM 10.4 °F 0.8 °F 6.8 °F 85% 30.29 in 10.0 mi WNW 5.8 mph - N/A   Clear
4:35 AM 10.4 °F -0.4 °F 6.8 °F 85% 30.29 in 10.0 mi WNW 6.9 mph - N/A   Clear
4:55 AM 10.4 °F -1.5 °F 5.0 °F 79% 30.28 in 10.0 mi NW 8.1 mph - N/A   Clear
5:15 AM 10.4 °F -0.4 °F 5.0 °F 79% 30.28 in 10.0 mi WNW 6.9 mph - N/A   Clear
5:35 AM 8.6 °F -2.6 °F 3.2 °F 79% 30.29 in 10.0 mi NW 6.9 mph - N/A   Clear
6:15 AM 8.6 °F -1.3 °F 3.2 °F 79% 30.30 in 10.0 mi WNW 5.8 mph - N/A   Clear
6:55 AM 8.6 °F -1.3 °F 3.2 °F 79% 30.31 in 10.0 mi NW 5.8 mph - N/A   Clear
7:15 AM 8.6 °F 0.1 °F 3.2 °F 79% 30.32 in 10.0 mi NW 4.6 mph - N/A   Clear
7:55 AM 8.6 °F -1.3 °F 3.2 °F 79% 30.33 in 10.0 mi NW 5.8 mph - N/A   Clear
8:15 AM 10.4 °F -0.4 °F 6.8 °F 85% 30.33 in 10.0 mi NW 6.9 mph - N/A   Clear
8:35 AM 12.2 °F 1.7 °F 8.6 °F 85% 30.34 in 10.0 mi NW 6.9 mph - N/A   Clear
8:55 AM 12.2 °F 4.3 °F 8.6 °F 85% 30.34 in 10.0 mi NW 4.6 mph - N/A   Clear
9:15 AM 14.0 °F 5.1 °F 8.6 °F 79% 30.35 in 10.0 mi NW 5.8 mph - N/A   Clear
9:35 AM 15.8 °F - 10.4 °F 79% 30.35 in 10.0 mi Calm Calm - N/A   Clear
9:55 AM 17.6 °F - 10.4 °F 73% 30.35 in 10.0 mi Calm Calm - N/A   Clear
10:15 AM 17.6 °F - 10.4 °F 73% 30.36 in 10.0 mi Calm Calm - N/A   Clear
10:35 AM 17.6 °F - 10.4 °F 73% 30.36 in 10.0 mi Calm Calm - N/A   Clear
10:55 AM 19.4 °F - 12.2 °F 74% 30.35 in 10.0 mi Calm Calm - N/A   Clear
11:15 AM 19.4 °F - 12.2 °F 74% 30.34 in 10.0 mi Calm Calm - N/A   Clear
11:35 AM 19.4 °F - 12.2 °F 74% 30.34 in 10.0 mi Calm Calm - N/A   Clear
12:15 PM 23.0 °F - 12.2 °F 63% 30.32 in 10.0 mi Calm Calm - N/A   Clear
12:55 PM 24.8 °F 17.9 °F 12.2 °F 59% 30.30 in 10.0 mi SE 5.8 mph - N/A   Clear
1:15 PM 24.8 °F - 12.2 °F 59% 30.29 in 10.0 mi Calm Calm - N/A   Clear
1:35 PM 24.8 °F 17.9 °F 14.0 °F 64% 30.29 in 10.0 mi SSE 5.8 mph - N/A   Clear
1:55 PM 24.8 °F 16.9 °F 14.0 °F 64% 30.28 in 10.0 mi ESE 6.9 mph - N/A   Clear
2:15 PM 26.6 °F 22.6 °F 15.8 °F 64% 30.27 in 10.0 mi SE 3.5 mph - N/A   Clear
2:35 PM 26.6 °F 19.1 °F 14.0 °F 59% 30.26 in 10.0 mi ESE 6.9 mph - N/A   Clear
2:55 PM 26.6 °F 19.1 °F 15.8 °F 64% 30.26 in 10.0 mi ESE 6.9 mph - N/A   Clear
3:15 PM 26.6 °F 18.2 °F 15.8 °F 64% 30.26 in 10.0 mi ESE 8.1 mph - N/A   Clear
3:35 PM 26.6 °F 19.1 °F 15.8 °F 64% 30.26 in 10.0 mi ESE 6.9 mph - N/A   Clear
3:55 PM 26.6 °F 19.1 °F 15.8 °F 64% 30.26 in 10.0 mi SE 6.9 mph - N/A   Clear
4:15 PM 26.6 °F 19.1 °F 17.6 °F 69% 30.25 in 10.0 mi ESE 6.9 mph - N/A   Clear
4:35 PM 26.6 °F 19.1 °F 17.6 °F 69% 30.25 in 10.0 mi ESE 6.9 mph - N/A   Clear
5:15 PM 24.8 °F 17.9 °F 15.8 °F 69% 30.24 in 10.0 mi East 5.8 mph - N/A   Clear
5:35 PM 24.8 °F 16.1 °F 15.8 °F 69% 30.24 in 10.0 mi East 8.1 mph - N/A   Clear
5:55 PM 24.8 °F 16.9 °F 15.8 °F 69% 30.25 in 10.0 mi ESE 6.9 mph - N/A   Clear
6:15 PM 23.0 °F 14.7 °F 17.6 °F 80% 30.25 in 10.0 mi SE 6.9 mph - N/A   Clear
6:35 PM 23.0 °F 13.9 °F 17.6 °F 80% 30.24 in 10.0 mi SE 8.1 mph - N/A   Clear
6:55 PM 23.0 °F 13.1 °F 17.6 °F 80% 30.24 in 10.0 mi SE 9.2 mph - N/A   Clear
7:55 PM 23.0 °F 12.4 °F 15.8 °F 74% 30.24 in 10.0 mi SE 10.4 mph - N/A   Clear
8:15 PM 21.2 °F 11.7 °F 15.8 °F 80% 30.24 in 10.0 mi SE 8.1 mph - N/A   Clear
8:35 PM 21.2 °F 10.9 °F 15.8 °F 80% 30.24 in 10.0 mi SSE 9.2 mph - N/A   Clear
8:55 PM 21.2 °F 11.7 °F 15.8 °F 80% 30.24 in 10.0 mi SSE 8.1 mph - N/A   Clear
9:15 PM 23.0 °F 15.8 °F 17.6 °F 80% 30.25 in 10.0 mi SSE 5.8 mph - N/A   Clear
9:35 PM 24.8 °F 17.9 °F 17.6 °F 74% 30.25 in 10.0 mi SSE 5.8 mph - N/A   Mostly Cloudy
9:55 PM 24.8 °F 16.9 °F 17.6 °F 74% 30.25 in 10.0 mi SSE 6.9 mph - N/A   Scattered Clouds
10:15 PM 24.8 °F 19.1 °F 17.6 °F 74% 30.25 in 10.0 mi ESE 4.6 mph - N/A   Scattered Clouds
10:35 PM 24.8 °F 16.1 °F 19.4 °F 80% 30.24 in 10.0 mi South 8.1 mph - N/A   Mostly Cloudy
10:55 PM 26.6 °F 17.5 °F 19.4 °F 74% 30.25 in 10.0 mi South 9.2 mph - N/A   Clear
11:15 PM 26.6 °F 19.1 °F 19.4 °F 74% 30.25 in 10.0 mi South 6.9 mph - N/A   Clear
11:35 PM 26.6 °F 18.2 °F 21.2 °F 80% 30.24 in 10.0 mi SSE 8.1 mph - N/A   Clear
11:55 PM 26.6 °F 17.5 °F 21.2 °F 80% 30.24 in 10.0 mi SSE 9.2 mph - N/A   Partly Cloudy